DW6062 Weather Reports


time (UTC)temp
C
wind
direction
speed
KPH
gust
KPH
rain 1hr
cm
rain 24hr
cm
rain mn
cm
humidity
%
barometer
mb
20260903060203 25 208 3.2 8.0 0.00 0.00 0.00 81 1016.5
20260903060114 25 211 4.8 4.8 0.00 0.00 0.00 81 1054.3
20260903055611 25 208 9.7 12.9 0.00 0.00 0.00 80 1054.6
20260903055203 25 231 8.0 12.9 0.00 0.00 0.00 80 1016.7
20260903055110 25 207 6.4 9.7 0.00 0.00 0.00 80 1054.1
20260903054702 25 223 4.8 12.9 0.00 0.00 0.00 80 1016.5
20260903054605 25 215 6.4 9.7 0.00 0.00 0.00 80 1054.3
20260903054202 25 215 4.8 12.9 0.00 0.00 0.00 80 1016.7
20260903054101 26 210 6.4 8.0 0.00 0.00 0.00 80 1054.3
20260903053702 26 197 8.0 12.9 0.00 0.00 0.00 80 1016.5
20260903053556 26 189 8.0 12.9 0.00 0.00 0.00 80 1054.3
20260903053202 26 203 6.4 12.9 0.00 0.00 0.00 79 1016.5
20260903053052 26 176 4.8 4.8 0.00 0.00 0.00 79 1054.2
20260903052702 26 202 4.8 12.9 0.00 0.00 0.00 79 1016.5
20260903052548 26 196 3.2 4.8 0.00 0.00 0.00 79 1054.4
20260903052202 26 233 4.8 11.3 0.00 0.00 0.00 79 1016.4
20260903052043 26 240 6.4 9.7 0.00 0.00 0.00 79 1054.2
20260903051543 26 210 3.2 3.2 0.00 0.00 0.00 79 1054.3
20260903051202 26 211 3.2 14.5 0.00 0.00 0.00 78 1016.4
20260903051039 26 196 4.8 4.8 0.00 0.00 0.00 78 1054.1
20260903050703 26 211 4.8 14.5 0.00 0.00 0.00 78 1016.4
20260903050537 26 203 3.2 4.8 0.00 0.00 0.00 78 1054.3
20260903050202 26 169 4.8 14.5 0.00 0.00 0.00 78 1016.5
20260903050033 26 165 4.8 4.8 0.00 0.00 0.00 78 1054.3
20260903045702 26 229 4.8 12.9 0.00 0.00 0.00 78 1016.2
20260903045532 26 237 8.0 12.9 0.00 0.00 0.00 78 1054.0
20260903045202 26 205 4.8 9.7 0.00 0.00 0.00 78 1016.3
20260903045029 26 201 4.8 4.8 0.00 0.00 0.00 78 1054.1
20260903044703 26 201 4.8 16.1 0.00 0.00 0.00 78 1016.2
20260903044525 26 188 4.8 9.7 0.00 0.00 0.00 78 1053.9
20260903044202 26 194 4.8 12.9 0.00 0.00 0.00 77 1016.2
20260903044020 26 200 4.8 8.0 0.00 0.00 0.00 77 1054.0
20260903043702 26 221 4.8 11.3 0.00 0.00 0.00 77 1016.2
20260903043516 26 222 3.2 8.0 0.00 0.00 0.00 77 1054.0
20260903043203 26 194 3.2 12.9 0.00 0.00 0.00 77 1016.1
20260903043015 26 176 3.2 4.8 0.00 0.00 0.00 77 1053.8
20260903042510 26 213 3.2 4.8 0.00 0.00 0.00 77 1053.9
20260903042006 26 220 8.0 9.7 0.00 0.00 0.00 77 1053.8
20260903041502 26 208 9.7 12.9 0.00 0.00 0.00 76 1053.8
20260903040957 26 222 14.5 24.1 0.00 0.00 0.00 76 1054.0
20260903040456 27 224 6.4 9.7 0.00 0.00 0.00 76 1053.8
20260903035953 27 205 4.8 4.8 0.00 0.00 0.00 76 1053.6
20260903035448 27 200 8.0 11.3 0.00 0.00 0.00 76 1053.7
20260903034943 27 196 6.4 8.0 0.00 0.00 0.00 76 1053.2
20260903034438 27 183 4.8 4.8 0.00 0.00 0.00 75 1053.3
20260903033933 27 233 4.8 9.7 0.00 0.00 0.00 75 1053.2
20260903033428 27 232 11.3 17.7 0.00 0.00 0.00 75 1053.3
20260903032929 27 206 4.8 8.0 0.00 0.00 0.00 75 1053.3
20260903032424 27 188 8.0 9.7 0.00 0.00 0.00 75 1053.5
20260903031919 27 187 11.3 12.9 0.00 0.00 0.00 75 1053.5
20260903031703 27 220 14.5 20.9 0.00 0.00 0.00 75 1015.9
20260903031419 27 190 16.1 20.9 0.00 0.00 0.00 75 1053.9
20260903031202 27 228 9.7 12.9 0.00 0.00 0.00 75 1015.9
20260903030914 27 217 9.7 12.9 0.00 0.00 0.00 75 1053.9
20260903030702 27 225 9.7 22.5 0.00 0.00 0.00 75 1016.0
20260903030410 27 214 12.9 22.5 0.00 0.00 0.00 75 1053.7
20260903025906 27 213 3.2 4.8 0.00 0.00 0.00 75 1054.0
20260903025401 27 211 4.8 8.0 0.00 0.00 0.00 75 1054.0
20260903025203 27 175 8.0 19.3 0.00 0.00 0.00 75 1016.2
20260903024856 27 211 3.2 8.0 0.00 0.00 0.00 75 1054.1
20260903024702 27 190 11.3 16.1 0.00 0.00 0.00 75 1016.4
20260903024356 27 205 11.3 14.5 0.00 0.00 0.00 75 1054.2
20260903024202 27 199 1.6 19.3 0.00 0.00 0.00 75 1016.4
20260903023851 27 224 9.7 17.7 0.00 0.00 0.00 75 1054.3
20260903023703 27 188 3.2 19.3 0.00 0.00 0.00 75 1016.6
20260903023347 27 201 8.0 16.1 0.00 0.00 0.00 75 1054.1
20260903023202 27 205 6.4 16.1 0.00 0.00 0.00 75 1016.6
20260903022842 27 202 4.8 4.8 0.00 0.00 0.00 74 1054.3
20260903022703 27 187 8.0 16.1 0.00 0.00 0.00 74 1016.5
20260903022341 27 210 6.4 9.7 0.00 0.00 0.00 74 1054.3
20260903022203 27 215 4.8 9.7 0.00 0.00 0.00 74 1016.6
20260903021839 27 183 1.6 3.2 0.00 0.00 0.00 74 1054.1
20260903021703 27 204 1.6 4.8 0.00 0.00 0.00 74 1016.7
20260903021336 27 201 3.2 3.2 0.00 0.00 0.00 74 1054.2
20260903020835 27 184 0.0 1.6 0.00 0.00 0.00 74 1054.4
20260903020330 27 201 4.8 8.0 0.00 0.00 0.00 74 1054.2
20260903020203 27 204 3.2 8.0 0.00 0.00 0.00 74 1016.5
20260903015825 27 190 0.0 1.6 0.00 0.00 0.00 73 1054.4
20260903015703 27 179 3.2 8.0 0.00 0.00 0.00 73 1016.6
20260903015321 27 197 4.8 8.0 0.00 0.00 0.00 73 1054.4
20260903014816 27 176 1.6 3.2 0.00 0.00 0.00 73 1054.3
20260903014703 27 196 1.6 3.2 0.00 0.00 0.00 73 1016.6
20260903014316 27 172 3.2 3.2 0.00 0.00 0.00 73 1054.4
20260903014203 27 200 1.6 8.0 0.00 0.00 0.00 73 1016.6
20260903013811 27 185 0.0 1.6 0.00 0.00 0.00 73 1054.4
20260903013703 27 193 1.6 8.0 0.00 0.00 0.00 73 1016.4
20260903013310 27 169 1.6 1.6 0.00 0.00 0.00 73 1054.3
20260903013203 27 221 3.2 3.2 0.00 0.00 0.00 73 1016.6
20260903012809 27 198 1.6 1.6 0.00 0.00 0.00 73 1054.3
20260903012306 27 198 1.6 1.6 0.00 0.00 0.00 73 1054.0
20260903012202 27 203 1.6 4.8 0.00 0.00 0.00 73 1016.5
20260903011803 27 189 3.2 3.2 0.00 0.00 0.00 73 1054.1
20260903011702 27 183 1.6 3.2 0.00 0.00 0.00 73 1016.5
20260903011302 27 149 1.6 3.2 0.00 0.00 0.00 72 1054.3
20260903011202 27 211 3.2 3.2 0.00 0.00 0.00 72 1016.4
20260903010758 27 239 1.6 1.6 0.00 0.00 0.00 72 1054.2
20260903010702 27 210 1.6 4.8 0.00 0.00 0.00 72 1016.3
20260903010254 27 200 3.2 3.2 0.00 0.00 0.00 72 1054.0
20260903010202 27 200 3.2 4.8 0.00 0.00 0.00 72 1016.5
20260903005752 27 208 1.6 3.2 0.00 0.00 0.00 72 1054.1
20260903005702 27 196 1.6 3.2 0.00 0.00 0.00 72 1016.2
20260903005247 27 248 1.6 3.2 0.00 0.00 0.00 72 1054.0
20260903005202 28 203 1.6 3.2 0.00 0.00 0.00 72 1016.4
20260903004743 28 176 1.6 1.6 0.00 0.00 0.00 71 1054.0
20260903004702 28 166 1.6 4.8 0.00 0.00 0.00 71 1016.3
20260903004238 28 192 3.2 3.2 0.00 0.00 0.00 71 1054.0
20260903004202 28 194 1.6 4.8 0.00 0.00 0.00 71 1016.0
20260903003734 28 175 0.0 0.0 0.00 0.00 0.00 71 1054.0
20260903003703 28 194 0.0 8.0 0.00 0.00 0.00 71 1016.0
20260903003229 28 232 3.2 4.8 0.00 0.00 0.00 70 1053.9
20260903003202 28 195 3.2 8.0 0.00 0.00 0.00 70 1015.9
20260903002723 28 186 1.6 3.2 0.00 0.00 0.00 70 1053.8
20260903002702 28 220 3.2 8.0 0.00 0.00 0.00 70 1015.8
20260903002217 28 197 0.0 1.6 0.00 0.00 0.00 69 1053.8
20260903002203 28 229 3.2 8.0 0.00 0.00 0.00 69 1016.1
20260903001713 28 191 0.0 0.0 0.00 0.00 0.00 69 1053.6
20260903001212 28 184 0.0 0.0 0.00 0.00 0.00 68 1053.7
20260903001202 28 177 1.6 8.0 0.00 0.00 0.00 68 1016.0
20260903000708 28 219 0.0 1.6 0.00 0.00 0.00 67 1054.0
20260903000702 28 214 3.2 8.0 0.00 0.00 0.00 67 1016.2
20260903000207 29 208 3.2 3.2 0.00 0.00 0.00 67 1053.7
20260903000204 29 215 3.2 8.0 0.00 0.00 0.00 67 1016.1
20260902235706 29 180 0.0 1.6 0.00 0.00 0.00 67 1053.8
20260902235703 29 191 1.6 3.2 0.00 0.00 0.00 67 1016.1
20260902235203 29 210 1.6 4.8 0.00 0.00 0.00 66 1016.1
20260902235201 29 196 1.6 3.2 0.00 0.00 0.00 66 1053.9
20260902234702 29 199 1.6 8.0 0.00 0.00 0.00 66 1016.2
20260902234203 30 202 3.2 4.8 0.00 0.00 0.00 65 1016.0
20260902234159 30 202 4.8 4.8 0.00 0.00 0.00 65 1053.7
20260902233703 30 219 4.8 9.7 0.00 0.00 0.00 65 1016.1
20260902233654 30 204 1.6 1.6 0.00 0.00 0.00 65 1053.7
20260902233203 30 206 4.8 8.0 0.00 0.00 0.00 64 1016.0
20260902233154 30 197 4.8 8.0 0.00 0.00 0.00 64 1053.7
20260902232703 30 199 4.8 8.0 0.00 0.00 0.00 63 1015.8
20260902232653 30 162 4.8 4.8 0.00 0.00 0.00 63 1053.6
20260902232202 30 203 3.2 9.7 0.00 0.00 0.00 63 1016.0
20260902232153 30 210 4.8 4.8 0.00 0.00 0.00 63 1053.8
20260902231702 30 228 3.2 11.3 0.00 0.00 0.00 63 1015.9
20260902231647 30 237 3.2 3.2 0.00 0.00 0.00 63 1053.8
20260902231203 30 280 4.8 11.3 0.00 0.00 0.00 63 1016.0
20260902231142 30 292 6.4 11.3 0.00 0.00 0.00 63 1053.8
20260902230702 31 229 4.8 8.0 0.00 0.00 0.00 63 1015.9
20260902230637 31 227 6.4 8.0 0.00 0.00 0.00 63 1053.6
20260902230202 31 194 3.2 12.9 0.00 0.00 0.00 63 1015.8
20260902230136 31 198 4.8 4.8 0.00 0.00 0.00 63 1053.5
20260902225702 31 245 4.8 12.9 0.00 0.00 0.00 62 1016.0
20260902225631 31 253 11.3 12.9 0.00 0.00 0.00 62 1053.8
20260902225202 31 201 3.2 9.7 0.00 0.00 0.00 62 1015.9
20260902225131 31 194 4.8 4.8 0.00 0.00 0.00 62 1053.8
20260902224629 31 224 3.2 4.8 0.00 0.00 0.00 61 1053.8
20260902224203 32 216 3.2 8.0 0.00 0.00 0.00 60 1016.0
20260902224125 32 205 4.8 8.0 0.00 0.00 0.00 60 1053.9
20260902223703 32 244 6.4 11.3 0.00 0.00 0.00 60 1016.0
20260902223621 32 250 6.4 8.0 0.00 0.00 0.00 60 1053.8
20260902223202 32 279 4.8 12.9 0.00 0.00 0.00 59 1016.1
20260902223120 32 237 4.8 4.8 0.00 0.00 0.00 59 1053.8
20260902222702 32 204 3.2 8.0 0.00 0.00 0.00 59 1015.9
20260902222619 32 160 0.0 0.0 0.00 0.00 0.00 59 1053.6
20260902222202 32 226 4.8 8.0 0.00 0.00 0.00 59 1016.1
20260902222119 32 250 3.2 8.0 0.00 0.00 0.00 59 1053.7
20260902221703 32 210 6.4 11.3 0.00 0.00 0.00 58 1016.0
20260902221613 32 221 6.4 11.3 0.00 0.00 0.00 58 1053.8
20260902221203 32 185 8.0 12.9 0.00 0.00 0.00 58 1016.1
20260902221108 32 171 8.0 12.9 0.00 0.00 0.00 58 1053.8
20260902220703 32 222 6.4 11.3 0.00 0.00 0.00 58 1016.0
20260902220604 32 216 6.4 8.0 0.00 0.00 0.00 59 1053.8
20260902220203 33 205 3.2 11.3 0.00 0.00 0.00 59 1016.0
20260902220058 33 206 1.6 3.2 0.00 0.00 0.00 59 1053.7
20260902215703 32 220 6.4 12.9 0.00 0.00 0.00 60 1016.1
20260902215554 32 231 3.2 3.2 0.00 0.00 0.00 60 1053.9
20260902215202 33 229 3.2 8.0 0.00 0.00 0.00 59 1015.9
20260902215050 33 246 4.8 4.8 0.00 0.00 0.00 59 1053.8
20260902214703 32 206 4.8 9.7 0.00 0.00 0.00 60 1016.1
20260902214549 32 219 8.0 9.7 0.00 0.00 0.00 60 1053.9
20260902214203 32 226 3.2 9.7 0.00 0.00 0.00 60 1016.2
20260902214049 32 252 4.8 8.0 0.00 0.00 0.00 60 1054.0
20260902213703 32 188 4.8 14.5 0.00 0.00 0.00 60 1016.2
20260902213544 32 175 6.4 12.9 0.00 0.00 0.00 59 1053.9
20260902213203 32 228 3.2 11.3 0.00 0.00 0.00 59 1015.9
20260902213044 32 248 3.2 3.2 0.00 0.00 0.00 59 1053.7
20260902212703 32 207 4.8 11.3 0.00 0.00 0.00 59 1016.1
20260902212539 32 238 6.4 11.3 0.00 0.00 0.00 60 1054.1
20260902212203 32 219 3.2 8.0 0.00 0.00 0.00 59 1016.2
20260902212035 32 229 4.8 8.0 0.00 0.00 0.00 59 1053.9
20260902211703 32 224 4.8 11.3 0.00 0.00 0.00 59 1016.3
20260902211532 33 207 6.4 11.3 0.00 0.00 0.00 58 1054.0
20260902211203 32 277 4.8 9.7 0.00 0.00 0.00 58 1016.2
20260902211026 32 286 4.8 8.0 0.00 0.00 0.00 58 1053.8
20260902210703 33 243 3.2 8.0 0.00 0.00 0.00 57 1016.5
20260902210526 33 210 1.6 3.2 0.00 0.00 0.00 57 1054.3
20260902210203 33 237 6.4 14.5 0.00 0.00 0.00 56 1016.4
20260902210026 33 265 6.4 9.7 0.00 0.00 0.00 56 1054.1
20260902205520 33 262 6.4 8.0 0.00 0.00 0.00 55 1054.2
20260902205203 33 214 8.0 16.1 0.00 0.00 0.00 54 1016.5
20260902205016 33 228 8.0 9.7 0.00 0.00 0.00 54 1054.2
20260902204703 33 211 4.8 12.9 0.00 0.00 0.00 55 1016.6
20260902204515 33 196 3.2 4.8 0.00 0.00 0.00 55 1054.3
20260902204203 33 179 9.7 14.5 0.00 0.00 0.00 55 1016.6
20260902204010 33 236 9.7 14.5 0.00 0.00 0.00 54 1054.4
20260902203703 33 204 3.2 16.1 0.00 0.00 0.00 55 1016.6
20260902203506 33 216 3.2 3.2 0.00 0.00 0.00 55 1054.6
20260902203203 33 223 6.4 16.1 0.00 0.00 0.00 54 1016.8
20260902203004 33 88 4.8 4.8 0.00 0.00 0.00 54 1054.5
20260902202703 33 184 4.8 11.3 0.00 0.00 0.00 55 1016.7
20260902202501 32 183 9.7 11.3 0.00 0.00 0.00 56 1054.4
20260902202203 33 201 11.3 20.9 0.00 0.00 0.00 56 1016.7
20260902201957 33 308 12.9 16.1 0.00 0.00 0.00 55 1054.6
20260902201703 33 217 4.8 8.0 0.00 0.00 0.00 55 1016.8
20260902201457 33 211 0.0 0.0 0.00 0.00 0.00 55 1054.4
20260902201203 33 206 9.7 14.5 0.00 0.00 0.00 55 1016.9
20260902200952 33 198 4.8 9.7 0.00 0.00 0.00 56 1054.6
20260902200702 33 190 8.0 16.1 0.00 0.00 0.00 56 1016.9
20260902200447 33 233 11.3 14.5 0.00 0.00 0.00 56 1054.7
20260902200203 33 213 4.8 11.3 0.00 0.00 0.00 56 1017.0
20260902195942 33 317 3.2 3.2 0.00 0.00 0.00 57 1054.6
20260902195703 33 178 8.0 16.1 0.00 0.00 0.00 56 1017.0
20260902195438 33 194 12.9 16.1 0.00 0.00 0.00 56 1054.7
20260902195203 33 218 6.4 19.3 0.00 0.00 0.00 56 1017.0
20260902194937 33 239 8.0 11.3 0.00 0.00 0.00 56 1054.7
20260902194437 33 192 6.4 9.7 0.00 0.00 0.00 55 1054.7
20260902194203 33 242 9.7 20.9 0.00 0.00 0.00 57 1017.1
20260902193932 33 345 8.0 17.7 0.00 0.00 0.00 57 1055.1
20260902193703 33 237 4.8 12.9 0.00 0.00 0.00 56 1017.0
20260902193428 33 253 4.8 4.8 0.00 0.00 0.00 56 1054.7
20260902193203 33 213 6.4 19.3 0.00 0.00 0.00 57 1017.0
20260902192927 33 142 6.4 11.3 0.00 0.00 0.00 57 1054.9
20260902192703 33 249 8.0 19.3 0.00 0.00 0.00 57 1017.2
20260902192426 33 167 8.0 12.9 0.00 0.00 0.00 56 1054.9
20260902191924 33 197 4.8 8.0 0.00 0.00 0.00 57 1055.1
20260902191420 33 223 4.8 4.8 0.00 0.00 0.00 57 1055.1
20260902190915 33 202 4.8 9.7 0.00 0.00 0.00 57 1055.2
20260902190703 33 208 3.2 19.3 0.00 0.00 0.00 59 1017.4
20260902190411 33 186 14.5 17.7 0.00 0.00 0.00 58 1055.3
20260902190203 33 224 8.0 11.3 0.00 0.00 0.00 58 1017.3
20260902185906 33 215 3.2 8.0 0.00 0.00 0.00 58 1055.3
20260902185702 33 240 4.8 20.9 0.00 0.00 0.00 58 1017.5
20260902185402 33 229 17.7 20.9 0.00 0.00 0.00 58 1055.1
20260902185203 33 203 8.0 20.9 0.00 0.00 0.00 59 1017.5
20260902184857 32 240 9.7 12.9 0.00 0.00 0.00 59 1055.2
20260902184706 33 209 8.0 14.5 0.00 0.00 0.00 60 1017.4
20260902184352 33 257 6.4 8.0 0.00 0.00 0.00 60 1055.2
20260902184203 32 228 4.8 27.4 0.00 0.00 0.00 60 1017.4
20260902183848 33 203 17.7 27.4 0.00 0.00 0.00 60 1055.5
20260902183702 33 184 9.7 14.5 0.00 0.00 0.00 60 1017.6
20260902183344 33 322 4.8 4.8 0.00 0.00 0.00 61 1055.4
20260902183203 32 214 11.3 20.9 0.00 0.00 0.00 62 1017.6
20260902182840 33 264 12.9 20.9 0.00 0.00 0.00 62 1055.4
20260902182703 33 231 8.0 16.1 0.00 0.00 0.00 61 1017.5
20260902182336 33 203 8.0 16.1 0.00 0.00 0.00 61 1055.6
20260902182203 32 176 9.7 16.1 0.00 0.00 0.00 62 1017.6
20260902181832 32 240 8.0 12.9 0.00 0.00 0.00 62 1055.5
20260902181328 32 211 8.0 17.7 0.00 0.00 0.00 63 1055.5
20260902181203 32 220 11.3 27.4 0.00 0.00 0.00 63 1017.7
20260902180827 32 191 9.7 11.3 0.00 0.00 0.00 63 1055.5
20260902180703 32 217 8.0 22.5 0.00 0.00 0.00 63 1018.0
20260902180323 32 213 14.5 22.5 0.00 0.00 0.00 63 1055.6
20260902180203 32 220 3.2 12.9 0.00 0.00 0.00 63 1017.9
20260902175818 32 219 4.8 8.0 0.00 0.00 0.00 63 1055.7
20260902175703 32 222 4.8 12.9 0.00 0.00 0.00 63 1017.9
20260902175313 32 211 4.8 4.8 0.00 0.00 0.00 63 1055.7
20260902175203 32 206 8.0 16.1 0.00 0.00 0.00 62 1018.0
20260902174809 32 191 8.0 11.3 0.00 0.00 0.00 63 1055.7
20260902174703 32 223 4.8 24.1 0.00 0.00 0.00 62 1017.9
20260902174306 32 194 8.0 11.3 0.00 0.00 0.00 62 1055.8
20260902174202 32 224 9.7 19.3 0.00 0.00 0.00 63 1017.9
20260902173801 32 205 6.4 9.7 0.00 0.00 0.00 63 1055.7
20260902173703 32 220 4.8 16.1 0.00 0.00 0.00 63 1018.1
20260902173301 32 234 4.8 4.8 0.00 0.00 0.00 63 1055.8
20260902172755 32 186 1.6 3.2 0.00 0.00 0.00 64 1056.2
20260902172702 32 182 4.8 11.3 0.00 0.00 0.00 64 1018.5
20260902172255 32 191 1.6 1.6 0.00 0.00 0.00 65 1056.3
20260902172203 32 215 8.0 24.1 0.00 0.00 0.00 64 1018.4
20260902171750 32 210 3.2 3.2 0.00 0.00 0.00 64 1056.1
20260902171703 32 212 4.8 12.9 0.00 0.00 0.00 63 1018.6
20260902171245 31 186 6.4 8.0 0.00 0.00 0.00 65 1056.3
20260902171203 31 217 8.0 19.3 0.00 0.00 0.00 64 1018.8
20260902170742 31 221 16.1 17.7 0.00 0.00 0.00 65 1056.4
20260902170703 32 208 9.7 20.9 0.00 0.00 0.00 66 1018.7
20260902170237 32 211 8.0 11.3 0.00 0.00 0.00 64 1056.3
20260902170203 31 236 4.8 19.3 0.00 0.00 0.00 64 1018.6
20260902165732 31 210 8.0 12.9 0.00 0.00 0.00 66 1056.3
20260902165226 31 217 16.1 20.9 0.00 0.00 0.00 65 1056.3
20260902165202 31 212 12.9 24.1 0.00 0.00 0.00 65 1018.5
20260902164721 31 232 8.0 12.9 0.00 0.00 0.00 65 1056.3
20260902164703 31 228 8.0 19.3 0.00 0.00 0.00 64 1018.6
20260902164221 32 226 3.2 4.8 0.00 0.00 0.00 63 1056.2
20260902163716 31 209 4.8 4.8 0.00 0.00 0.00 65 1056.5
20260902163704 31 215 6.4 20.9 0.00 0.00 0.00 64 1018.5
20260902163215 31 216 4.8 8.0 0.00 0.00 0.00 67 1056.2
20260902163204 31 229 4.8 9.7 0.00 0.00 0.00 65 1018.6
20260902162714 31 235 4.8 4.8 0.00 0.00 0.00 66 1056.4
20260902162704 31 205 4.8 11.3 0.00 0.00 0.00 67 1018.7
20260902162209 31 172 4.8 4.8 0.00 0.00 0.00 67 1056.8
20260902162203 31 181 3.2 9.7 0.00 0.00 0.00 67 1018.8
20260902161704 30 185 8.0 16.1 0.00 0.00 0.00 67 1018.7
20260902161159 30 263 11.3 16.1 0.00 0.00 0.00 67 1056.4
20260902160704 30 284 6.4 16.1 0.00 0.00 0.00 68 1018.7
20260902160656 30 302 11.3 16.1 0.00 0.00 0.00 68 1056.5
20260902160150 31 191 8.0 11.3 0.00 0.00 0.00 66 1056.4
20260902155703 30 206 3.2 4.8 0.00 0.00 0.00 67 1018.6
20260902155649 30 219 3.2 4.8 0.00 0.00 0.00 67 1056.3
20260902155204 30 204 4.8 24.1 0.00 0.00 0.00 69 1018.7
20260902155148 30 197 0.0 1.6 0.00 0.00 0.00 69 1056.5
20260902154703 30 218 9.7 24.1 0.00 0.00 0.00 68 1018.6
20260902154643 30 219 19.3 24.1 0.00 0.00 0.00 68 1056.3
20260902154204 30 177 9.7 19.3 0.00 0.00 0.00 67 1018.6
20260902154143 30 167 12.9 17.7 0.00 0.00 0.00 67 1056.4
20260902153704 30 225 8.0 20.9 0.00 0.00 0.00 69 1018.7
20260902153643 30 229 8.0 11.3 0.00 0.00 0.00 69 1056.5
20260902153204 30 222 8.0 20.9 0.00 0.00 0.00 67 1018.6
20260902153137 30 225 14.5 20.9 0.00 0.00 0.00 67 1056.3
20260902152704 30 235 4.8 14.5 0.00 0.00 0.00 67 1018.7
20260902152634 30 249 0.0 1.6 0.00 0.00 0.00 67 1056.4
20260902152203 30 241 3.2 11.3 0.00 0.00 0.00 68 1018.6
20260902152129 30 249 3.2 11.3 0.00 0.00 0.00 68 1056.3
20260902151704 29 198 4.8 8.0 0.00 0.00 0.00 69 1018.5
20260902151624 29 187 6.4 8.0 0.00 0.00 0.00 69 1056.3
20260902151204 29 220 4.8 14.5 0.00 0.00 0.00 69 1018.6
20260902151119 29 200 4.8 8.0 0.00 0.00 0.00 69 1056.4
20260902150704 28 196 3.2 8.0 0.00 0.00 0.00 70 1018.8
20260902150615 28 196 4.8 8.0 0.00 0.00 0.00 70 1056.7
20260902150204 28 243 3.2 9.7 0.00 0.00 0.00 71 1018.7
20260902150110 28 245 4.8 8.0 0.00 0.00 0.00 71 1056.4
20260902145704 28 200 4.8 9.7 0.00 0.00 0.00 71 1018.7
20260902145610 28 234 3.2 3.2 0.00 0.00 0.00 71 1056.5
20260902145109 28 209 1.6 1.6 0.00 0.00 0.00 71 1056.3
20260902144704 28 178 4.8 9.7 0.00 0.00 0.00 72 1018.6
20260902144606 28 198 4.8 8.0 0.00 0.00 0.00 72 1056.4
20260902144204 28 195 3.2 4.8 0.00 0.00 0.00 72 1018.6
20260902144106 28 197 1.6 4.8 0.00 0.00 0.00 71 1056.3
20260902143601 28 205 3.2 8.0 0.00 0.00 0.00 73 1056.4
20260902143203 28 184 3.2 9.7 0.00 0.00 0.00 73 1018.7
20260902143057 28 177 3.2 3.2 0.00 0.00 0.00 73 1056.5
20260902142705 28 166 1.6 4.8 0.00 0.00 0.00 73 1018.4
20260902142552 28 195 1.6 3.2 0.00 0.00 0.00 73 1056.2
20260902142048 27 147 4.8 8.0 0.00 0.00 0.00 74 1056.2
20260902141703 27 219 4.8 9.7 0.00 0.00 0.00 75 1018.4
20260902141548 27 217 4.8 4.8 0.00 0.00 0.00 75 1056.2
20260902141204 27 201 6.4 9.7 0.00 0.00 0.00 75 1018.3
20260902141043 27 215 8.0 9.7 0.00 0.00 0.00 75 1056.1
20260902140704 27 211 3.2 8.0 0.00 0.00 0.00 75 1018.4
20260902140543 27 201 3.2 8.0 0.00 0.00 0.00 75 1056.3
20260902140203 27 195 3.2 9.7 0.00 0.00 0.00 75 1018.4
20260902140039 27 219 4.8 8.0 0.00 0.00 0.00 75 1056.2
20260902135703 27 251 3.2 9.7 0.00 0.00 0.00 76 1018.4
20260902135539 27 200 1.6 1.6 0.00 0.00 0.00 77 1056.3
20260902135204 26 239 4.8 12.9 0.00 0.00 0.00 77 1018.2
20260902135039 26 250 6.4 8.0 0.00 0.00 0.00 78 1055.9
20260902134535 26 207 4.8 4.8 0.00 0.00 0.00 78 1056.0
20260902134035 26 205 4.8 8.0 0.00 0.00 0.00 78 1056.1
20260902133704 26 200 8.0 12.9 0.00 0.00 0.00 79 1018.5
20260902133530 26 212 8.0 11.3 0.00 0.00 0.00 79 1056.3
20260902133030 26 173 9.7 12.9 0.00 0.00 0.00 80 1056.2
20260902132704 25 207 4.8 9.7 0.00 0.00 0.00 81 1018.4
20260902132525 25 206 6.4 9.7 0.00 0.00 0.00 81 1056.3
20260902132204 25 240 4.8 11.3 0.00 0.00 0.00 82 1018.5
20260902132020 25 250 8.0 11.3 0.00 0.00 0.00 82 1056.4
20260902131703 25 213 8.0 12.9 0.00 0.00 0.00 82 1018.6
20260902131517 25 209 8.0 12.9 0.00 0.00 0.00 83 1056.4
20260902131203 25 201 1.6 9.7 0.00 0.00 0.00 83 1018.4
20260902131016 25 209 1.6 3.2 0.00 0.00 0.00 83 1056.2
20260902130704 25 209 3.2 12.9 0.00 0.00 0.00 84 1018.8
20260902130512 25 197 3.2 4.8 0.00 0.00 0.00 84 1056.3
20260902130008 24 198 3.2 4.8 0.00 0.00 0.00 84 1056.2
20260902125703 24 201 1.6 4.8 0.00 0.00 0.00 84 1018.5
20260902125503 24 187 4.8 4.8 0.00 0.00 0.00 84 1056.5
20260902125204 24 196 1.6 8.0 0.00 0.00 0.00 84 1018.6
20260902124958 24 187 1.6 3.2 0.00 0.00 0.00 85 1056.4
20260902124703 24 181 1.6 8.0 0.00 0.00 0.00 85 1018.5
20260902124455 24 162 3.2 4.8 0.00 0.00 0.00 85 1056.3
20260902124203 24 203 4.8 11.3 0.00 0.00 0.00 85 1018.5
20260902123949 24 227 6.4 8.0 0.00 0.00 0.00 85 1056.0
20260902123704 23 200 4.8 11.3 0.00 0.00 0.00 85 1018.4
20260902123446 23 177 4.8 8.0 0.00 0.00 0.00 85 1056.2
20260902123203 24 189 3.2 8.0 0.00 0.00 0.00 85 1018.3
20260902122944 24 189 4.8 8.0 0.00 0.00 0.00 85 1056.1
20260902122703 24 220 9.7 20.9 0.00 0.00 0.00 84 1018.3
20260902122440 24 212 0.0 1.6 0.00 0.00 0.00 84 1056.1
20260902122203 24 212 4.8 11.3 0.00 0.00 0.00 84 1018.4
20260902121935 24 204 8.0 11.3 0.00 0.00 0.00 84 1056.1
20260902121703 24 186 3.2 4.8 0.00 0.00 0.00 85 1018.4
20260902121435 24 188 1.6 3.2 0.00 0.00 0.00 85 1056.1
20260902120930 23 208 4.8 4.8 0.00 0.00 0.00 85 1056.2
20260902120703 23 206 1.6 4.8 0.00 0.00 0.00 85 1018.4
20260902120427 23 195 1.6 3.2 0.00 0.00 0.00 86 1056.2
20260902120203 23 244 4.8 11.3 0.00 0.00 0.00 85 1018.2
20260902115926 23 191 1.6 3.2 0.00 0.00 0.00 86 1056.1
20260902115704 23 211 4.8 11.3 0.00 0.00 0.00 85 1018.3
20260902115422 23 237 8.0 11.3 0.00 0.00 0.00 85 1056.2
20260902115203 23 202 1.6 8.0 0.00 0.00 0.00 86 1018.1
20260902114919 23 205 1.6 3.2 0.00 0.00 0.00 86 1056.1
20260902114414 23 195 1.6 3.2 0.00 0.00 0.00 86 1056.0
20260902114204 23 224 4.8 8.0 0.00 0.00 0.00 86 1018.1
20260902113909 23 189 1.6 1.6 0.00 0.00 0.00 86 1055.8
20260902113703 23 198 1.6 4.8 0.00 0.00 0.00 86 1018.1
20260902113405 23 156 0.0 0.0 0.00 0.00 0.00 86 1056.0
20260902113204 23 201 1.6 8.0 0.00 0.00 0.00 86 1018.2
20260902112904 23 224 4.8 8.0 0.00 0.00 0.00 86 1055.7
20260902112703 23 187 1.6 8.0 0.00 0.00 0.00 86 1018.0
20260902112401 23 207 3.2 8.0 0.00 0.00 0.00 86 1055.9
20260902112203 23 222 3.2 4.8 0.00 0.00 0.00 87 1018.0
20260902111856 23 196 1.6 3.2 0.00 0.00 0.00 87 1055.7
20260902111352 23 190 4.8 4.8 0.00 0.00 0.00 87 1055.7
20260902110848 23 201 0.0 0.0 0.00 0.00 0.00 87 1055.6
20260902110704 23 190 1.6 3.2 0.00 0.00 0.00 87 1017.9
20260902110343 23 193 0.0 0.0 0.00 0.00 0.00 87 1055.4
20260902110203 23 226 0.0 1.6 0.00 0.00 0.00 87 1017.7
20260902105843 23 206 1.6 1.6 0.00 0.00 0.00 87 1055.5
20260902105703 23 202 1.6 3.2 0.00 0.00 0.00 87 1017.9
20260902105338 23 209 1.6 1.6 0.00 0.00 0.00 87 1055.5
20260902104833 23 196 0.0 0.0 0.00 0.00 0.00 87 1055.3
20260902104703 23 198 0.0 1.6 0.00 0.00 0.00 86 1017.8
20260902104330 23 200 0.0 0.0 0.00 0.00 0.00 86 1055.4
20260902104204 23 202 1.6 4.8 0.00 0.00 0.00 86 1017.9
20260902103829 23 200 0.0 0.0 0.00 0.00 0.00 86 1055.5
20260902103703 23 210 1.6 4.8 0.00 0.00 0.00 86 1017.7
20260902103324 23 173 0.0 1.6 0.00 0.00 0.00 86 1055.6
20260902103204 23 194 3.2 4.8 0.00 0.00 0.00 86 1017.7
20260902102819 23 174 1.6 1.6 0.00 0.00 0.00 86 1055.2
20260902102704 23 200 0.0 3.2 0.00 0.00 0.00 86 1017.7
20260902102318 23 201 0.0 1.6 0.00 0.00 0.00 86 1055.5
20260902101813 23 198 0.0 1.6 0.00 0.00 0.00 86 1055.2
20260902101704 23 219 1.6 3.2 0.00 0.00 0.00 86 1017.6
20260902101307 23 231 0.0 1.6 0.00 0.00 0.00 86 1055.4
20260902101203 23 196 3.2 8.0 0.00 0.00 0.00 86 1017.6
20260902100807 23 185 1.6 1.6 0.00 0.00 0.00 86 1055.4
20260902100703 23 199 1.6 3.2 0.00 0.00 0.00 86 1017.7
20260902100306 23 211 0.0 0.0 0.00 0.00 0.00 86 1055.3
20260902095801 23 194 3.2 4.8 0.00 0.00 0.00 86 1055.5
20260902095703 23 170 1.6 3.2 0.00 0.00 0.00 86 1017.7
20260902095301 23 199 3.2 3.2 0.00 0.00 0.00 86 1055.3
20260902095203 23 172 1.6 8.0 0.00 0.00 0.00 86 1017.6
20260902094756 23 193 3.2 8.0 0.00 0.00 0.00 86 1055.3
20260902094703 23 202 1.6 3.2 0.00 0.00 0.00 86 1017.5
20260902094253 23 223 1.6 1.6 0.00 0.00 0.00 86 1055.3
20260902093752 23 191 0.0 0.0 0.00 0.00 0.00 86 1055.4
20260902093247 23 198 3.2 4.8 0.00 0.00 0.00 87 1055.6
20260902093203 23 204 1.6 3.2 0.00 0.00 0.00 87 1017.7
20260902092746 23 188 0.0 1.6 0.00 0.00 0.00 87 1055.4
20260902092242 23 211 1.6 1.6 0.00 0.00 0.00 87 1055.5
20260902092203 23 208 0.0 1.6 0.00 0.00 0.00 87 1017.6
20260902091741 23 197 0.0 0.0 0.00 0.00 0.00 87 1055.6
20260902091704 23 203 1.6 3.2 0.00 0.00 0.00 87 1017.8
20260902091238 23 211 1.6 1.6 0.00 0.00 0.00 87 1055.4
20260902091204 23 198 0.0 0.0 0.00 0.00 0.00 87 1017.9
20260902090734 23 196 0.0 0.0 0.00 0.00 0.00 86 1055.5
20260902090703 23 195 0.0 3.2 0.00 0.00 0.00 86 1017.7
20260902090233 23 190 0.0 1.6 0.00 0.00 0.00 86 1055.4
20260902090203 23 215 3.2 3.2 0.00 0.00 0.00 86 1017.7
20260902085727 23 200 1.6 1.6 0.00 0.00 0.00 87 1055.7
20260902085222 23 194 0.0 0.0 0.00 0.00 0.00 86 1055.5
20260902084719 23 191 0.0 0.0 0.00 0.00 0.00 87 1055.6
20260902084215 23 167 0.0 1.6 0.00 0.00 0.00 87 1055.4
20260902083714 23 185 1.6 1.6 0.00 0.00 0.00 87 1055.4
20260902083214 23 193 0.0 1.6 0.00 0.00 0.00 87 1055.4
20260902082710 23 181 1.6 1.6 0.00 0.00 0.00 87 1055.4
20260902082206 23 204 1.6 1.6 0.00 0.00 0.00 88 1055.2
20260902081702 23 201 0.0 1.6 0.00 0.00 0.00 88 1055.3
20260902081157 23 193 0.0 1.6 0.00 0.00 0.00 88 1055.5
20260902080652 23 176 0.0 1.6 0.00 0.00 0.00 88 1055.7
20260902080149 23 191 1.6 1.6 0.00 0.00 0.00 88 1055.4
20260902075648 23 204 1.6 1.6 0.00 0.00 0.00 88 1055.4
20260902075144 23 194 0.0 0.0 0.00 0.00 0.00 88 1055.3
20260902074639 23 194 0.0 0.0 0.00 0.00 0.00 88 1055.5
20260902074135 23 194 0.0 0.0 0.00 0.00 0.00 88 1055.2
20260902073630 23 183 1.6 1.6 0.00 0.00 0.00 88 1055.2
20260902073126 23 194 0.0 0.0 0.00 0.00 0.00 87 1055.3
20260902072622 23 173 1.6 1.6 0.00 0.00 0.00 87 1055.5
20260902072118 23 198 0.0 0.0 0.00 0.00 0.00 87 1055.3
20260902071613 23 182 0.0 0.0 0.00 0.00 0.00 87 1055.1
20260902071109 23 184 0.0 0.0 0.00 0.00 0.00 87 1055.3
20260902070604 23 192 0.0 0.0 0.00 0.00 0.00 87 1055.3
20260902070059 23 193 0.0 1.6 0.00 0.00 0.00 87 1055.2
20260902065558 23 204 0.0 1.6 0.00 0.00 0.00 86 1055.1
20260902065054 23 196 0.0 0.0 0.00 0.00 0.00 87 1055.1
20260902064550 23 168 0.0 0.0 0.00 0.00 0.00 87 1055.4
20260902064045 23 197 0.0 0.0 0.00 0.00 0.00 87 1055.4
20260902063545 23 230 3.2 3.2 0.00 0.00 0.00 87 1055.4
20260902063040 23 204 1.6 1.6 0.00 0.00 0.00 87 1055.5
20260902062538 23 176 0.0 0.0 0.00 0.00 0.00 87 1055.4
20260902062034 23 191 0.0 0.0 0.00 0.00 0.00 87 1055.2
20260902061534 23 192 0.0 0.0 0.00 0.00 0.00 87 1055.3
20260902061030 23 188 1.6 3.2 0.00 0.00 0.00 87 1055.4
20260902060526 23 197 0.0 0.0 0.00 0.00 0.00 87 1055.4